Starlink 11142

operational
NORAD ID: 59957 Int'l Des: 2024-107 Owner: SPXS Country: US Constellation: starlink
LEOCIRCULAR

Über Starlink 11142

Beschreibung wird geladen...

Live-Position

3D-Globus wird geladen...

Nächste Überflüge

Höhenverlauf

Altitude vs Time

uPlot chart will show altitude changes over time

Zweizeiliger Elementsatz

1 59957U 24107N 25307.83735889 -.00000425 00000-0 13497-5 0 9998
2 59957 53.1585 151.3603 0000934 99.2859 260.8264 15.69705372 82396
Epoch: 3. Nov. 2025 • Age: 6 hours

Aktueller Status

Höhe 361.8 km
Geschwindigkeit 7.69 km/s
Subsatellitenpunkt -5.81°S, 69.51°E
Startdatum 5. Juni 2024
Alter 1.4 years
Typ internet

Technische Details

Klassifizierung Payload
Masse 960.00 kg
Trockenmasse 910.00 kg
Gesamtmasse 960.00 kg
Länge 0.30 m
Durchmesser 4.10 m
Spannweite 29.00 m
Form Box + pan
Hersteller SPXS
Bus-Typ Starlink V2MD
Phasenstatus In Orbit
Besitzer/Staat SPXS/US

Große Konstellationen

Loading constellations...